Regional Weather Roundup
Issued by NWS Charleston, SC

Current Version | Previous Version | Graphics & Text | Print | Product List | Glossary On
Versions: 1 2 3 4 5 6 7 8 9 10 11 12 13 14 15 16 17 18 19 20 21 22 23 24 25 26 27 28 29 30 31 32 33 34 35 36 37 38 39 40 41 42 43 44 45 46 47 48 49 50
000
ASUS42 KCHS 270825
RWRCHS

REGIONAL WEATHER ROUNDUP
NATIONAL WEATHER SERVICE CHARLESTON SC
300 AM EST TUE JAN 27 2015

NOTE: "FAIR" INDICATES FEW OR NO CLOUDS BELOW 12,000 FEET WITH NO
SIGNIFICANT WEATHER AND/OR OBSTRUCTIONS TO VISIBILITY.

NOT ALL STATIONS ARE QUALITY CONTROLLED BY THE NATIONAL
WEATHER SERVICE. USE DATA WITH CAUTION...ESPECIALLY
DEWPOINT OBSERVATIONS.

SCZ027-030-031-034>040-042>050-270900-
...SOUTHEAST SOUTH CAROLINA...

CITY           SKY/WX    TMP DP  RH WIND       PRES   REMARKS
N CHARLESTON   PTCLDY    39  30  70 W14G22    29.81R WCI  31
WATERFRONT PRK   N/A     41 N/A N/A W12G20      N/A
MOUNT PLEASANT FAIR     N/A N/A N/A W12G17    29.79R
PINOPOLIS      NOT AVBL
MONCKS CORNER  FAIR      39  30  70 W5        29.80R WCI  36
SUMMERVILLE    NOT AVBL
BEAUFORT MCAS  CLEAR     39  29  67 W14       29.85R WCI  31
BEAUFORT ARPT  FAIR      39  32  75 W14       29.85R WCI  31
HILTON HEAD IS CLEAR     39  32  75 SW8       29.87R WCI  34
WALTERBORO     SUNNY     37  28  70 W10       29.85R WCI  30
ALLENDALE      FAIR      37  28  70 W8        29.84F WCI  31

...SOUTHERN MIDLANDS AND PEE DEE...

CITY           SKY/WX    TMP DP  RH WIND       PRES   REMARKS
GEORGETOWN     NOT AVBL
KINGSTREE      NOT AVBL
ORANGEBURG     PTCLDY    37  27  67 W10       29.83R WCI  30
BARNWELL       FAIR      36  28  75 W5        29.85S WCI  32
AIKEN          FAIR      34  28  80 W8        29.85S WCI  27
MANNING        NOT AVBL
COLUMBIA       CLEAR     36  28  73 W7        29.81R WCI  30
SUMTER         CLEAR     36  25  62 W8        29.78R WCI  30
FLORENCE       CLEAR     40  26  57 NW12      29.76R WCI  33
MYRTLE BEACH   MOCLDY    45  32  61 W15       29.74R
N MYRTLE BEACH PTCLDY    44  35  70 NW6       29.70S

$$

GAZ063-065-086>088-099>101-113>116-118-119-134>141-150-270900-
...SOUTHEAST GEORGIA...

CITY           SKY/WX    TMP DP  RH WIND       PRES   REMARKS
SAVANNAH ARPT  CLEAR     38  28  67 W13       29.88R WCI  30
HUNTER AAF     CLEAR     38  29  71 W13G23    29.86R WCI  30
FORT STEWART   CLEAR     39  28  66 W13       29.90R WCI  31
STATESBORO     CLEAR     38  30  74 W9        29.88F WCI  31
SYLVANIA       SUNNY     37  31  79 W12       29.86F WCI  29
CLAXTON        FAIR      37  32  81 W10       29.91S WCI  30

...CSRA...CENTRAL AND FAR SOUTHEAST GEORGIA...

CITY           SKY/WX    TMP DP  RH WIND       PRES   REMARKS
THOMSON        CLEAR     36  31  82 W7        29.90F WCI  30
AUGUSTA-BUSH   CLEAR     35  25  66 W8        29.86S WCI  29
AUGUSTA-DANIEL CLEAR     37  26  64 W7        29.84F WCI  32
SWAINSBORO     PTSUNNY   37  25  60 W7        29.92S WCI  32
VIDALIA        CLEAR     37  32  81 W7        29.93F WCI  32
EASTMAN        FAIR      37  33  87 W3        29.97F
HAZLEHURST     FAIR      40  34  80 W3        29.94F
ALMA           CLOUDY    41  32  70 NW10      29.95F
WAYCROSS       CLOUDY    43  37  80 W7        29.97R
JESUP          PTSUNNY   43  34  70 NW12      29.94S
BAXLEY         FAIR      41  32  70 NW7       29.94S
BRUNSWICK      CLEAR     41  32  70 W10G18    29.93S
SAINT SIMONS   CLEAR     41  30  65 W13G23    29.91S

$$

SCZ027-028-034-036>038-045-046-048>050-GAZ119-141-270900-
...LAKE AND SUPPLEMENTAL COASTAL OBSERVATIONS...

STATION/POSITION TIME  TEMP    WIND        PRES    WAVE   SWELL
                       AIR SEA DIR/SP/G            HT/PER HT/PER/DIR
                 (UTC) (F)     (DEG/KT/KT) (MB)    (FT/S) (FT/S/D)
UPR LAKE MARION  NOT AVBL
WINYAH BAY       0800   42     280/  9     1006.0S
LAKE MURRAY      0800   37     290/  3/ 11 1008.8S
ACE BASIN NERRS  NOT AVBL
FORT PULASKI     0800   40 53  280/ 18/ 21 1011.8R
SAPELO ISLAND    0800   41     280/ 13     1012.0S

$$

ANZ835-935-AMZ111-154-330-350-352-354-370-450-454-472-270900-
...C-MAN AND BUOY OBSERVATIONS...

STATION/POSITION TIME  TEMP    WIND        PRES    WAVE   SWELL
                       AIR SEA DIR/SP/G            HT/PER HT/PER/DIR
                 (UTC) (F)     (DEG/KT/KT) (MB)    (FT/S) (FT/S/D)
BUOY 41004       0800   48 68  290/ 25/ 29 1006.6R   8/ 7   2/13
BUOY 41008       0800   44 55  300/ 25/ 29 1010.9F   5/ 5
FOLLY BEACH CMAN 0800   40     280/ 10/ 16 1009.5R
CAPERS NEARSHORE 0700   45     300/ 19/ 21   N/A
FRIPP NEARSHORE  0700   44     280/ 21/ 25   N/A


STATION/POSITION TIME  TEMP    WIND        PRES    WAVE   SWELL
                       AIR SEA DIR/SP/G            HT/PER HT/PER/DIR
                 (UTC) (F)     (DEG/KT/KT) (MB)    (FT/S) (FT/S/D)
5E ST. MARYS GA  0800      58                N/A     3/ 4
FRYING PAN BUOY  0800   51 67  310/ 19/ 25 1004.4R   7/ 8   3/210/ 8
BUOY 41025       0800   44 66  340/ 23/ 29 1001.0R   5/ 4   2/180/ 8
CAPE LOOKOUT NC  0800   45     330/ 20/ 23 1003.0R
BUOY 41002       0750   61 72  260/ 25/ 37 1001.2R  14/10
BUOY 41010       0800   62 76  280/ 27/ 33 1009.5R  13/ 9
ST AUGUSTINE FL  0800   44     300/ 13/ 15 1014.5F


$$



USA.gov is the U.S. government's official web portal to all federal, state and local government web resources and services.